Location: Quebec
(46.8000°N, 71.2500°W)
Time: 04:06:04
(UTC-04:00)

Tiangong 1 - Pass Details

Date: 14 October 2017
Orbit: 292 x 319 km, 42.8° (Epoch: 22 October)

Event Time Altitude Azimuth Distance (km) Brightness Sun altitude
Rises 18:30:10 0° 266° (W) 2,052 7.7 -6.1°
Reaches altitude 10° 18:32:20 10° 252° (WSW) 1,215 5.2 -6.4°
Maximum altitude 18:34:40 25° 193° (SSW) 675 2.5 -6.8°
Drops below altitude 10° 18:36:58 10° 134° (SE) 1,199 3.2 -7.2°
Enters shadow 18:37:55 - 126° (SE) 1,551 3.7 -7.4°
